TimeEST,TemperatureF,Dew PointF,Humidity,Sea Level PressureIn,VisibilityMPH,Wind Direction,Wind SpeedMPH,Gust SpeedMPH,PrecipitationIn,Events,Conditions,WindDirDegrees,DateUTC
12:00 AM,69.8,57.2,64,30.23,6.2,NE,11.5,-,N/A,,Mostly Cloudy,40,2013-01-24 05:00:00
1:00 AM,70,59,60,,8,NE,11.5,,,,,40,2013-01-24 06:00:00
1:00 AM,69.8,59.0,68,30.22,6.2,NE,11.5,-,N/A,,Mostly Cloudy,40,2013-01-24 06:00:00
2:00 AM,69.8,59.0,68,30.20,6.2,NE,8.1,-,N/A,,Mostly Cloudy,40,2013-01-24 07:00:00
3:00 AM,69.8,59.0,68,30.19,6.2,NE,6.9,-,N/A,,Mostly Cloudy,50,2013-01-24 08:00:00
4:00 AM,69,59,64,30.19,8,NE,11.5,,,,Partly Cloudy,40,2013-01-24 09:00:00
4:00 AM,69.8,59.0,68,30.19,6.2,NE,11.5,-,N/A,,Mostly Cloudy,40,2013-01-24 09:00:00
5:00 AM,69.8,59.0,68,30.19,6.2,NE,5.8,-,N/A,,Mostly Cloudy,40,2013-01-24 10:00:00
6:00 AM,69.8,57.2,64,30.21,6.2,NE,5.8,-,N/A,,Mostly Cloudy,40,2013-01-24 11:00:00
7:00 AM,70,59,60,30.20,9,NE,11.5,,,,Partly Cloudy,40,2013-01-24 12:00:00
7:00 AM,69.8,59.0,68,30.20,6.2,NE,11.5,-,N/A,,Scattered Clouds,40,2013-01-24 12:00:00
8:00 AM,69.8,57.2,64,30.23,6.2,NE,11.5,-,N/A,,Scattered Clouds,50,2013-01-24 13:00:00
9:00 AM,71.6,59.0,64,30.05,6.2,ENE,9.2,-,N/A,,Scattered Clouds,60,2013-01-24 14:00:00
10:00 AM,73,60,54,30.28,9,NE,13.8,,,,Partly Cloudy,50,2013-01-24 15:00:00
10:00 AM,73.4,59.0,61,30.27,6.2,NE,13.8,-,N/A,,Scattered Clouds,50,2013-01-24 15:00:00
11:00 AM,71.6,57.2,60,30.31,6.2,ENE,16.1,-,N/A,,Scattered Clouds,60,2013-01-24 16:00:00
12:00 PM,73.4,55.4,53,30.25,6.2,NE,11.5,-,N/A,,Scattered Clouds,40,2013-01-24 17:00:00
1:00 PM,76,58,44,30.23,9,NE,9.2,,,,Partly Cloudy,50,2013-01-24 18:00:00
1:00 PM,75.2,59.0,57,30.23,6.2,NE,9.2,-,N/A,,Scattered Clouds,50,2013-01-24 18:00:00
2:00 PM,73.4,55.4,53,30.21,6.2,NE,6.9,-,N/A,,Scattered Clouds,50,2013-01-24 19:00:00
3:00 PM,71.6,55.4,57,30.19,6.2,NE,11.5,-,N/A,,Scattered Clouds,50,2013-01-24 20:00:00
4:00 PM,73,56,45,30.19,9,North,9.2,,,,Scattered Clouds,10,2013-01-24 21:00:00
4:00 PM,73.4,55.4,53,30.19,6.2,North,9.2,-,N/A,,Partly Cloudy,10,2013-01-24 21:00:00
5:00 PM,71.6,55.4,57,30.20,6.2,North,9.2,-,N/A,,Partly Cloudy,10,2013-01-24 22:00:00
6:00 PM,69.8,57.2,64,30.21,6.2,North,9.2,-,N/A,,Scattered Clouds,10,2013-01-24 23:00:00
7:00 PM,70,,,30.23,9,North,9.2,,,,Partly Cloudy,10,2013-01-25 00:00:00
7:00 PM,69.8,57.2,64,30.22,6.2,North,9.2,-,N/A,,Scattered Clouds,10,2013-01-25 00:00:00
8:00 PM,69.8,57.2,64,30.24,6.2,North,9.2,-,N/A,,Scattered Clouds,10,2013-01-25 01:00:00
10:00 PM,69,56,53,30.26,9,North,9.2,,,,Partly Cloudy,10,2013-01-25 03:00:00
10:00 PM,68.0,55.4,64,30.25,6.2,North,9.2,-,N/A,,Scattered Clouds,10,2013-01-25 03:00:00
11:00 PM,69.8,55.4,60,30.25,6.2,North,6.9,-,N/A,,Scattered Clouds,360,2013-01-25 04:00:00